Location: Eurasberg
(48.3353°N, 11.0839°E)
Time: 05:42:48
(UTC+00:00)

CZ-2D R/B - Pass Details

Date: 18 January 2026
Orbit: 389 x 399 km, 97.4° (Epoch: 10 February)

Event Time Altitude Azimuth Distance (km) Brightness Sun altitude
Rises 05:53:20 0° 14° (NNE) 2,324 6.5 -10.8°
Reaches altitude 10° 05:55:21 10° 17° (NNE) 1,456 5.5 -10.5°
Maximum altitude 05:58:26 72° 102° (ESE) 421 2.9 -10.0°
Drops below altitude 10° 06:01:29 10° 188° (S) 1,432 5.6 -9.6°
Sets 06:03:26 0° 190° (S) 2,280 6.6 -9.3°
